User: anonymous   Login
Location: Asheville, NC
(35.6000°N, 82.5500°W)
Time: 20:36:34
(UTC-04:00)
Language:

XW-2D - Orbit

View from above orbital plane
View from above orbital plane
View from above satellite
View from above satellite

Ground track
Ground track

The orbit data is extracted from the following two-line orbital elements,

1 40907U 15049J   18198.51352635  .00000578  00000-0  34076-4 0  9990
2 40907  97.4574 201.1433 0012715 284.5538  75.4284 15.15392352156090
Epoch (UTC): 17 July 2018 12:19:28
Eccentricity: 0.0012715
inclination: 97.4574°
perigee height: 511 km
apogee height: 528 km
right ascension of ascending node: 201.1433°
argument of perigee: 284.5538°
revolutions per day: 15.15392352
mean anomaly at epoch: 75.4284°
orbit number at epoch: 15609

The dashed part of the orbit path shows where the satellite is in the earth's shadow,  

DLR